| time (UTC) | temp F | wind direction | speed MPH | gust MPH | rain 1hr in | rain 24hr in | rain mn in | humidity % | barometer mb |
| 20260831112126 | 75 | 252 | 0.0 | 2.0 | 0.00 | 0.00 | 0.00 | 92 | 1010.8 |
| 20260831111616 | 75 | 252 | 1.0 | 2.0 | 0.00 | 0.00 | 0.00 | 92 | 1010.9 |
| 20260831111135 | 75 | 252 | 0.0 | 1.0 | 0.00 | 0.00 | 0.00 | 92 | 1010.7 |
| 20260831110623 | 75 | 252 | 0.0 | 1.0 | 0.00 | 0.00 | 0.00 | 92 | 1010.5 |
| 20260831110125 | 75 | 252 | 0.0 | 1.0 | 0.00 | 0.00 | 0.00 | 92 | 1010.7 |
| 20260831105625 | 75 | 252 | 0.0 | 0.0 | 0.00 | 0.00 | 0.00 | 92 | 1010.6 |
| 20260831105143 | 75 | 252 | 0.0 | 1.0 | 0.00 | 0.00 | 0.00 | 92 | 1010.6 |
| 20260831104626 | 76 | 252 | 0.0 | 2.0 | 0.00 | 0.00 | 0.00 | 92 | 1010.6 |
| 20260831104123 | 75 | 252 | 1.0 | 1.0 | 0.00 | 0.00 | 0.00 | 92 | 1010.6 |
| 20260831103626 | 75 | 252 | 0.0 | 0.0 | 0.00 | 0.00 | 0.00 | 92 | 1010.6 |
| 20260831103124 | 75 | 252 | 0.0 | 1.0 | 0.00 | 0.00 | 0.00 | 91 | 1010.7 |
| 20260831102643 | 75 | 252 | 0.0 | 1.0 | 0.00 | 0.00 | 0.00 | 91 | 1010.6 |
| 20260831102120 | 75 | 252 | 0.0 | 1.0 | 0.00 | 0.00 | 0.00 | 91 | 1010.5 |
| 20260831101624 | 76 | 252 | 0.0 | 0.0 | 0.00 | 0.00 | 0.00 | 91 | 1010.5 |
| 20260831101121 | 76 | 252 | 0.0 | 0.0 | 0.00 | 0.00 | 0.00 | 90 | 1010.4 |
| 20260831100628 | 76 | 252 | 0.0 | 0.0 | 0.00 | 0.00 | 0.00 | 90 | 1010.4 |
| 20260831100130 | 76 | 252 | 0.0 | 0.0 | 0.00 | 0.00 | 0.00 | 90 | 1010.4 |
| 20260831095633 | 76 | 252 | 0.0 | 1.0 | 0.00 | 0.00 | 0.00 | 90 | 1010.2 |
| 20260831095128 | 76 | 252 | 0.0 | 1.0 | 0.00 | 0.00 | 0.00 | 89 | 1010.3 |
| 20260831094631 | 76 | 252 | 0.0 | 1.0 | 0.00 | 0.00 | 0.00 | 89 | 1010.2 |
| 20260831094132 | 76 | 252 | 0.0 | 1.0 | 0.00 | 0.00 | 0.00 | 89 | 1010.2 |
| 20260831093616 | 76 | 252 | 0.0 | 2.0 | 0.00 | 0.00 | 0.00 | 89 | 1010.1 |
| 20260831093154 | 76 | 252 | 1.0 | 2.0 | 0.00 | 0.00 | 0.00 | 89 | 1010.1 |
| 20260831092637 | 77 | 252 | 0.0 | 2.0 | 0.00 | 0.00 | 0.00 | 88 | 1010.0 |
| 20260831092116 | 77 | 252 | 0.0 | 2.0 | 0.00 | 0.00 | 0.00 | 88 | 1009.9 |
| 20260831091642 | 77 | 252 | 1.0 | 1.0 | 0.00 | 0.00 | 0.00 | 87 | 1009.8 |
| 20260831091123 | 77 | 252 | 0.0 | 2.0 | 0.00 | 0.00 | 0.00 | 87 | 1009.9 |
| 20260831090626 | 77 | 252 | 0.0 | 2.0 | 0.00 | 0.00 | 0.00 | 87 | 1009.8 |
| 20260831090129 | 78 | 252 | 0.0 | 0.0 | 0.00 | 0.00 | 0.00 | 86 | 1009.9 |
| 20260831085633 | 78 | 252 | 0.0 | 2.0 | 0.00 | 0.00 | 0.00 | 86 | 1009.8 |
| 20260831085131 | 78 | 252 | 0.0 | 2.0 | 0.00 | 0.00 | 0.00 | 86 | 1009.7 |
| 20260831084615 | 78 | 252 | 0.0 | 2.0 | 0.00 | 0.00 | 0.00 | 85 | 1009.7 |
| 20260831084135 | 78 | 252 | 0.0 | 4.0 | 0.00 | 0.00 | 0.00 | 85 | 1009.6 |
| 20260831083623 | 78 | 252 | 1.0 | 4.0 | 0.00 | 0.00 | 0.00 | 85 | 1009.5 |
| 20260831083126 | 78 | 177 | 0.0 | 2.0 | 0.00 | 0.00 | 0.00 | 85 | 1009.5 |
| 20260831082613 | 78 | 177 | 1.0 | 2.0 | 0.00 | 0.00 | 0.00 | 85 | 1009.5 |
| 20260831082117 | 79 | 177 | 0.0 | 2.0 | 0.00 | 0.00 | 0.00 | 85 | 1009.5 |
| 20260831081645 | 79 | 177 | 0.0 | 1.0 | 0.00 | 0.00 | 0.00 | 85 | 1009.4 |
| 20260831081121 | 79 | 177 | 0.0 | 2.0 | 0.00 | 0.00 | 0.00 | 85 | 1009.5 |
| 20260831080644 | 79 | 177 | 0.0 | 4.0 | 0.00 | 0.00 | 0.00 | 84 | 1009.4 |
| 20260831080120 | 79 | 177 | 1.0 | 4.0 | 0.00 | 0.00 | 0.00 | 84 | 1009.4 |
| 20260831075626 | 79 | 177 | 0.0 | 4.0 | 0.00 | 0.00 | 0.00 | 84 | 1009.3 |
| 20260831075124 | 79 | 177 | 1.0 | 4.0 | 0.00 | 0.00 | 0.00 | 85 | 1009.3 |
| 20260831074649 | 79 | 142 | 1.0 | 4.0 | 0.00 | 0.00 | 0.00 | 85 | 1009.3 |
| 20260831074129 | 79 | 183 | 2.0 | 4.0 | 0.00 | 0.00 | 0.00 | 85 | 1009.3 |
| 20260831073632 | 79 | 143 | 0.0 | 4.0 | 0.00 | 0.00 | 0.00 | 85 | 1009.4 |
| 20260831073150 | 79 | 143 | 0.0 | 4.0 | 0.00 | 0.00 | 0.00 | 85 | 1009.5 |
| 20260831072638 | 79 | 210 | 0.0 | 2.0 | 0.00 | 0.00 | 0.00 | 85 | 1009.6 |
| 20260831072116 | 79 | 211 | 0.0 | 2.0 | 0.00 | 0.00 | 0.00 | 86 | 1009.6 |
| 20260831071618 | 79 | 210 | 1.0 | 2.0 | 0.00 | 0.00 | 0.00 | 86 | 1009.5 |
| 20260831071135 | 79 | 210 | 0.0 | 2.0 | 0.00 | 0.00 | 0.00 | 86 | 1009.6 |
| 20260831070621 | 79 | 210 | 0.0 | 0.0 | 0.00 | 0.00 | 0.00 | 86 | 1009.6 |
| 20260831070116 | 79 | 211 | 0.0 | 1.0 | 0.00 | 0.00 | 0.00 | 86 | 1009.7 |
| 20260831065644 | 79 | 211 | 0.0 | 1.0 | 0.00 | 0.00 | 0.00 | 86 | 1009.7 |
| 20260831065118 | 79 | 211 | 0.0 | 0.0 | 0.00 | 0.00 | 0.00 | 86 | 1009.8 |
| 20260831064622 | 79 | 211 | 0.0 | 0.0 | 0.00 | 0.00 | 0.00 | 85 | 1009.8 |
| 20260831064119 | 79 | 211 | 0.0 | 0.0 | 0.00 | 0.00 | 0.00 | 85 | 1009.7 |
| 20260831063644 | 79 | 211 | 0.0 | 1.0 | 0.00 | 0.00 | 0.00 | 85 | 1009.7 |
| 20260831063124 | 80 | 210 | 0.0 | 0.0 | 0.00 | 0.00 | 0.00 | 84 | 1009.7 |
| 20260831062628 | 80 | 210 | 0.0 | 1.0 | 0.00 | 0.00 | 0.00 | 84 | 1009.7 |
| 20260831062129 | 80 | 211 | 0.0 | 1.0 | 0.00 | 0.00 | 0.00 | 83 | 1009.7 |
| 20260831061633 | 80 | 211 | 0.0 | 1.0 | 0.00 | 0.00 | 0.00 | 83 | 1009.7 |
| 20260831061131 | 80 | 211 | 0.0 | 1.0 | 0.00 | 0.00 | 0.00 | 83 | 1009.6 |
| 20260831060634 | 81 | 210 | 0.0 | 1.0 | 0.00 | 0.00 | 0.00 | 82 | 1009.6 |
| 20260831060133 | 81 | 210 | 0.0 | 1.0 | 0.00 | 0.00 | 0.00 | 82 | 1009.6 |
| 20260831055616 | 81 | 210 | 0.0 | 0.0 | 0.00 | 0.00 | 0.00 | 81 | 1009.5 |
| 20260831055133 | 81 | 211 | 0.0 | 1.0 | 0.00 | 0.00 | 0.00 | 81 | 1009.5 |
| 20260831054617 | 82 | 211 | 0.0 | 2.0 | 0.00 | 0.00 | 0.00 | 80 | 1009.4 |
| 20260831054133 | 82 | 210 | 0.0 | 2.0 | 0.00 | 0.00 | 0.00 | 79 | 1009.3 |
| 20260831053622 | 83 | 211 | 0.0 | 2.0 | 0.00 | 0.00 | 0.00 | 79 | 1009.3 |
| 20260831053123 | 83 | 210 | 0.0 | 2.0 | 0.00 | 0.00 | 0.00 | 78 | 1009.3 |
| 20260831052629 | 83 | 210 | 0.0 | 2.0 | 0.00 | 0.00 | 0.00 | 77 | 1009.3 |
| 20260831052129 | 84 | 210 | 0.0 | 2.0 | 0.00 | 0.00 | 0.00 | 77 | 1009.1 |
| 20260831051632 | 84 | 210 | 1.0 | 4.0 | 0.00 | 0.00 | 0.00 | 76 | 1009.0 |
| 20260831051131 | 83 | 210 | 1.0 | 4.0 | 0.00 | 0.00 | 0.00 | 77 | 1008.9 |
| 20260831050618 | 83 | 192 | 0.0 | 4.0 | 0.00 | 0.00 | 0.00 | 77 | 1008.9 |
| 20260831050136 | 83 | 221 | 1.0 | 4.0 | 0.00 | 0.00 | 0.00 | 78 | 1009.0 |
| 20260831045650 | 83 | 146 | 1.0 | 5.0 | 0.00 | 0.00 | 0.00 | 79 | 1009.0 |
| 20260831045126 | 82 | 143 | 1.0 | 5.0 | 0.00 | 0.00 | 0.00 | 79 | 1009.0 |
| 20260831044654 | 82 | 137 | 1.0 | 2.0 | 0.00 | 0.00 | 0.00 | 79 | 1009.0 |
| 20260831044132 | 82 | 227 | 0.0 | 2.0 | 0.00 | 0.00 | 0.00 | 79 | 1009.0 |
| 20260831043618 | 82 | 229 | 0.0 | 1.0 | 0.00 | 0.00 | 0.00 | 79 | 1009.0 |
| 20260831043117 | 82 | 229 | 0.0 | 1.0 | 0.00 | 0.00 | 0.00 | 79 | 1009.0 |
| 20260831042621 | 82 | 229 | 0.0 | 1.0 | 0.00 | 0.00 | 0.00 | 79 | 1009.0 |
| 20260831042141 | 82 | 229 | 0.0 | 0.0 | 0.00 | 0.00 | 0.00 | 79 | 1009.0 |
| 20260831041629 | 82 | 229 | 0.0 | 0.0 | 0.00 | 0.00 | 0.00 | 79 | 1009.1 |
| 20260831041128 | 82 | 229 | 0.0 | 0.0 | 0.00 | 0.00 | 0.00 | 79 | 1009.1 |
| 20260831040636 | 82 | 229 | 0.0 | 0.0 | 0.00 | 0.00 | 0.00 | 79 | 1009.1 |
| 20260831040123 | 82 | 229 | 0.0 | 0.0 | 0.00 | 0.00 | 0.00 | 78 | 1009.2 |
| 20260831035626 | 82 | 229 | 0.0 | 0.0 | 0.00 | 0.00 | 0.00 | 78 | 1009.3 |
| 20260831035126 | 83 | 229 | 0.0 | 0.0 | 0.00 | 0.00 | 0.00 | 78 | 1009.3 |
| 20260831034650 | 83 | 229 | 0.0 | 0.0 | 0.00 | 0.00 | 0.00 | 78 | 1009.3 |
| 20260831034127 | 83 | 229 | 0.0 | 0.0 | 0.00 | 0.00 | 0.00 | 77 | 1009.3 |
| 20260831033656 | 83 | 229 | 0.0 | 0.0 | 0.00 | 0.00 | 0.00 | 77 | 1009.4 |
| 20260831033131 | 83 | 229 | 0.0 | 0.0 | 0.00 | 0.00 | 0.00 | 77 | 1009.3 |
| 20260831032619 | 83 | 229 | 0.0 | 1.0 | 0.00 | 0.00 | 0.00 | 77 | 1009.3 |
| 20260831032121 | 83 | 229 | 0.0 | 1.0 | 0.00 | 0.00 | 0.00 | 77 | 1009.3 |
| 20260831031623 | 82 | 229 | 0.0 | 1.0 | 0.00 | 0.00 | 0.00 | 78 | 1009.4 |
| 20260831031121 | 82 | 229 | 0.0 | 0.0 | 0.00 | 0.00 | 0.00 | 78 | 1009.4 |
| 20260831030624 | 83 | 229 | 0.0 | 0.0 | 0.00 | 0.00 | 0.00 | 78 | 1009.5 |
| 20260831030123 | 83 | 229 | 0.0 | 0.0 | 0.00 | 0.00 | 0.00 | 78 | 1009.7 |
| 20260831025630 | 83 | 229 | 0.0 | 0.0 | 0.00 | 0.00 | 0.00 | 77 | 1009.6 |
| 20260831025130 | 83 | 229 | 0.0 | 0.0 | 0.00 | 0.00 | 0.00 | 77 | 1009.6 |
| 20260831024618 | 83 | 229 | 0.0 | 0.0 | 0.00 | 0.00 | 0.00 | 77 | 1009.6 |
| 20260831024155 | 83 | 229 | 0.0 | 0.0 | 0.00 | 0.00 | 0.00 | 76 | 1009.6 |
| 20260831023623 | 84 | 229 | 0.0 | 0.0 | 0.00 | 0.00 | 0.00 | 76 | 1009.6 |
| 20260831023121 | 84 | 229 | 0.0 | 0.0 | 0.00 | 0.00 | 0.00 | 76 | 1009.5 |
| 20260831022625 | 84 | 229 | 0.0 | 0.0 | 0.00 | 0.00 | 0.00 | 75 | 1009.4 |
| 20260831022123 | 84 | 229 | 0.0 | 0.0 | 0.00 | 0.00 | 0.00 | 75 | 1009.4 |
| 20260831021627 | 84 | 229 | 0.0 | 0.0 | 0.00 | 0.00 | 0.00 | 74 | 1009.4 |
| 20260831021126 | 85 | 229 | 0.0 | 0.0 | 0.00 | 0.00 | 0.00 | 74 | 1009.4 |
| 20260831020630 | 85 | 229 | 0.0 | 0.0 | 0.00 | 0.00 | 0.00 | 73 | 1009.3 |
| 20260831020127 | 85 | 229 | 0.0 | 0.0 | 0.00 | 0.00 | 0.00 | 72 | 1009.3 |
| 20260831015630 | 85 | 229 | 0.0 | 0.0 | 0.00 | 0.00 | 0.00 | 71 | 1009.3 |
| 20260831015128 | 86 | 229 | 0.0 | 0.0 | 0.00 | 0.00 | 0.00 | 71 | 1009.2 |
| 20260831014631 | 86 | 229 | 0.0 | 0.0 | 0.00 | 0.00 | 0.00 | 70 | 1009.1 |
| 20260831014133 | 86 | 229 | 0.0 | 0.0 | 0.00 | 0.00 | 0.00 | 69 | 1009.0 |
| 20260831013620 | 87 | 229 | 0.0 | 0.0 | 0.00 | 0.00 | 0.00 | 68 | 1008.9 |
| 20260831013118 | 87 | 229 | 0.0 | 0.0 | 0.00 | 0.00 | 0.00 | 68 | 1008.9 |
| 20260831012623 | 87 | 229 | 0.0 | 0.0 | 0.00 | 0.00 | 0.00 | 67 | 1008.9 |
| 20260831012118 | 88 | 229 | 0.0 | 0.0 | 0.00 | 0.00 | 0.00 | 67 | 1009.0 |
| 20260831011622 | 88 | 229 | 0.0 | 0.0 | 0.00 | 0.00 | 0.00 | 67 | 1008.9 |
| 20260831011139 | 88 | 229 | 0.0 | 0.0 | 0.00 | 0.00 | 0.00 | 66 | 1008.9 |
| 20260831010623 | 89 | 229 | 0.0 | 0.0 | 0.00 | 0.00 | 0.00 | 65 | 1008.9 |
| 20260831010125 | 89 | 229 | 0.0 | 0.0 | 0.00 | 0.00 | 0.00 | 65 | 1008.8 |
| 20260831005625 | 90 | 229 | 0.0 | 2.0 | 0.00 | 0.00 | 0.00 | 64 | 1008.8 |
| 20260831005122 | 90 | 229 | 0.0 | 2.0 | 0.00 | 0.00 | 0.00 | 63 | 1008.7 |
| 20260831004628 | 91 | 229 | 0.0 | 3.0 | 0.00 | 0.00 | 0.00 | 63 | 1008.8 |
| 20260831004125 | 91 | 229 | 0.0 | 3.0 | 0.00 | 0.00 | 0.00 | 62 | 1008.8 |
| 20260831003629 | 91 | 229 | 0.0 | 3.0 | 0.00 | 0.00 | 0.00 | 62 | 1008.9 |
| 20260831003126 | 91 | 229 | 0.0 | 4.0 | 0.00 | 0.00 | 0.00 | 61 | 1008.8 |
| 20260831002653 | 92 | 249 | 1.0 | 4.0 | 0.00 | 0.00 | 0.00 | 60 | 1008.8 |
| 20260831002115 | 92 | 243 | 1.0 | 3.0 | 0.00 | 0.00 | 0.00 | 60 | 1008.9 |
| 20260831001624 | 92 | 275 | 1.0 | 3.0 | 0.00 | 0.00 | 0.00 | 60 | 1008.8 |
| 20260831001121 | 92 | 275 | 1.0 | 3.0 | 0.00 | 0.00 | 0.00 | 59 | 1008.8 |
| 20260831000625 | 92 | 275 | 2.0 | 3.0 | 0.00 | 0.00 | 0.00 | 59 | 1008.8 |
| 20260831000126 | 93 | 263 | 1.0 | 3.0 | 0.00 | 0.00 | 0.00 | 59 | 1008.7 |
| 20260830235630 | 92 | 234 | 1.0 | 3.0 | 0.00 | 0.00 | 0.00 | 59 | 1008.7 |
| 20260830235132 | 92 | 234 | 2.0 | 5.0 | 0.00 | 0.00 | 0.00 | 58 | 1008.8 |
| 20260830234617 | 93 | 264 | 2.0 | 5.0 | 0.00 | 0.00 | 0.00 | 57 | 1008.8 |
| 20260830234121 | 93 | 270 | 2.0 | 5.0 | 0.00 | 0.00 | 0.00 | 57 | 1008.8 |
| 20260830233625 | 93 | 256 | 2.0 | 7.0 | 0.00 | 0.00 | 0.00 | 57 | 1008.8 |
| 20260830233123 | 93 | 207 | 3.0 | 9.0 | 0.00 | 0.00 | 0.00 | 57 | 1008.8 |
| 20260830232628 | 93 | 262 | 2.0 | 9.0 | 0.00 | 0.00 | 0.00 | 57 | 1008.7 |
| 20260830232146 | 93 | 275 | 3.0 | 6.0 | 0.00 | 0.00 | 0.00 | 57 | 1008.7 |
| 20260830231650 | 93 | 233 | 3.0 | 8.0 | 0.00 | 0.00 | 0.00 | 57 | 1008.7 |
| 20260830231150 | 93 | 237 | 4.0 | 8.0 | 0.00 | 0.00 | 0.00 | 56 | 1008.7 |
| 20260830230617 | 93 | 140 | 4.0 | 7.0 | 0.00 | 0.00 | 0.00 | 55 | 1008.7 |
| 20260830230117 | 93 | 264 | 2.0 | 6.0 | 0.00 | 0.00 | 0.00 | 57 | 1008.6 |
| 20260830225640 | 93 | 211 | 3.0 | 7.0 | 0.00 | 0.00 | 0.00 | 57 | 1008.6 |
| 20260830225132 | 93 | 226 | 2.0 | 7.0 | 0.00 | 0.00 | 0.00 | 57 | 1008.6 |
| 20260830224620 | 92 | 217 | 2.0 | 8.0 | 0.00 | 0.00 | 0.00 | 57 | 1008.6 |
| 20260830224122 | 92 | 162 | 4.0 | 8.0 | 0.00 | 0.00 | 0.00 | 57 | 1008.6 |
| 20260830223641 | 92 | 221 | 1.0 | 6.0 | 0.00 | 0.00 | 0.00 | 58 | 1008.5 |
| 20260830223118 | 92 | 241 | 2.0 | 14.0 | 0.00 | 0.00 | 0.00 | 57 | 1008.6 |
| 20260830222642 | 92 | 214 | 5.0 | 14.0 | 0.00 | 0.00 | 0.00 | 56 | 1008.6 |
| 20260830222122 | 92 | 154 | 5.0 | 13.0 | 0.00 | 0.00 | 0.00 | 56 | 1008.5 |
| 20260830221645 | 92 | 230 | 3.0 | 10.0 | 0.00 | 0.00 | 0.00 | 56 | 1008.5 |
| 20260830221142 | 92 | 246 | 3.0 | 9.0 | 0.00 | 0.00 | 0.00 | 56 | 1008.6 |
| 20260830220631 | 92 | 229 | 3.0 | 10.0 | 0.00 | 0.00 | 0.00 | 56 | 1008.5 |
| 20260830220131 | 92 | 241 | 6.0 | 10.0 | 0.00 | 0.00 | 0.00 | 56 | 1008.5 |
| 20260830215634 | 91 | 206 | 4.0 | 10.0 | 0.00 | 0.00 | 0.00 | 57 | 1008.5 |
| 20260830215135 | 92 | 241 | 5.0 | 12.0 | 0.00 | 0.00 | 0.00 | 56 | 1008.4 |
| 20260830214638 | 92 | 241 | 4.0 | 12.0 | 0.00 | 0.00 | 0.00 | 56 | 1008.4 |
| 20260830214137 | 92 | 215 | 4.0 | 7.0 | 0.00 | 0.00 | 0.00 | 55 | 1008.4 |
| 20260830213619 | 92 | 181 | 3.0 | 8.0 | 0.00 | 0.00 | 0.00 | 56 | 1008.4 |
| 20260830213119 | 91 | 225 | 3.0 | 9.0 | 0.00 | 0.00 | 0.00 | 56 | 1008.4 |
| 20260830212642 | 91 | 254 | 5.0 | 12.0 | 0.00 | 0.00 | 0.00 | 56 | 1008.4 |
| 20260830212123 | 91 | 111 | 2.0 | 12.0 | 0.00 | 0.00 | 0.00 | 56 | 1008.4 |
| 20260830211627 | 91 | 239 | 4.0 | 9.0 | 0.00 | 0.00 | 0.00 | 56 | 1008.6 |
| 20260830211125 | 91 | 225 | 2.0 | 9.0 | 0.00 | 0.00 | 0.00 | 58 | 1008.7 |
| 20260830210629 | 90 | 211 | 2.0 | 6.0 | 0.00 | 0.00 | 0.00 | 59 | 1008.8 |
| 20260830210131 | 90 | 229 | 4.0 | 12.0 | 0.00 | 0.00 | 0.00 | 58 | 1008.8 |
| 20260830205618 | 90 | 302 | 3.0 | 12.0 | 0.00 | 0.00 | 0.00 | 58 | 1008.9 |
| 20260830205119 | 90 | 209 | 4.0 | 11.0 | 0.00 | 0.00 | 0.00 | 59 | 1008.9 |
| 20260830204648 | 90 | 200 | 3.0 | 12.0 | 0.00 | 0.00 | 0.00 | 59 | 1009.0 |
| 20260830204124 | 89 | 265 | 5.0 | 12.0 | 0.00 | 0.00 | 0.00 | 59 | 1009.1 |
| 20260830203631 | 89 | 252 | 7.0 | 10.0 | 0.00 | 0.00 | 0.00 | 59 | 1009.1 |
| 20260830203130 | 89 | 249 | 4.0 | 9.0 | 0.00 | 0.00 | 0.00 | 60 | 1009.1 |
| 20260830202617 | 88 | 253 | 5.0 | 11.0 | 0.00 | 0.00 | 0.00 | 60 | 1009.1 |
| 20260830202135 | 89 | 219 | 4.0 | 9.0 | 0.00 | 0.00 | 0.00 | 60 | 1009.1 |
| 20260830201621 | 89 | 237 | 3.0 | 6.0 | 0.00 | 0.00 | 0.00 | 60 | 1008.9 |
| 20260830201122 | 89 | 246 | 4.0 | 6.0 | 0.00 | 0.00 | 0.00 | 61 | 1009.0 |
| 20260830200625 | 89 | 243 | 3.0 | 6.0 | 0.00 | 0.00 | 0.00 | 59 | 1008.9 |
| 20260830200128 | 88 | 245 | 1.0 | 5.0 | 0.00 | 0.00 | 0.00 | 63 | 1008.9 |
| 20260830195631 | 87 | 206 | 2.0 | 6.0 | 0.00 | 0.00 | 0.00 | 65 | 1009.2 |
| 20260830195136 | 87 | 214 | 3.0 | 6.0 | 0.00 | 0.00 | 0.00 | 65 | 1009.3 |
| 20260830194619 | 86 | 233 | 2.0 | 6.0 | 0.00 | 0.00 | 0.00 | 65 | 1009.5 |
| 20260830194116 | 86 | 275 | 3.0 | 11.0 | 0.00 | 0.00 | 0.00 | 64 | 1009.6 |
| 20260830193622 | 86 | 272 | 3.0 | 11.0 | 0.00 | 0.00 | 0.00 | 64 | 1009.6 |
| 20260830193123 | 86 | 224 | 5.0 | 9.0 | 0.00 | 0.00 | 0.00 | 64 | 1009.5 |
| 20260830192627 | 86 | 220 | 3.0 | 10.0 | 0.00 | 0.00 | 0.00 | 64 | 1009.6 |
| 20260830192124 | 87 | 256 | 4.0 | 11.0 | 0.00 | 0.00 | 0.00 | 62 | 1009.5 |
| 20260830191629 | 87 | 254 | 4.0 | 11.0 | 0.00 | 0.00 | 0.00 | 62 | 1009.6 |
| 20260830191127 | 87 | 166 | 2.0 | 8.0 | 0.00 | 0.00 | 0.00 | 61 | 1009.5 |
| 20260830190651 | 88 | 239 | 3.0 | 9.0 | 0.00 | 0.00 | 0.00 | 59 | 1009.3 |
| 20260830190131 | 88 | 219 | 5.0 | 11.0 | 0.00 | 0.00 | 0.00 | 59 | 1009.1 |
| 20260830185653 | 88 | 243 | 4.0 | 11.0 | 0.00 | 0.00 | 0.00 | 59 | 1009.3 |
| 20260830185148 | 87 | 199 | 2.0 | 10.0 | 0.00 | 0.00 | 0.00 | 62 | 1009.3 |
| 20260830184632 | 86 | 245 | 4.0 | 9.0 | 0.00 | 0.00 | 0.00 | 61 | 1009.4 |
| 20260830184135 | 86 | 221 | 5.0 | 9.0 | 0.00 | 0.00 | 0.00 | 60 | 1009.4 |
| 20260830183621 | 86 | 277 | 3.0 | 8.0 | 0.00 | 0.00 | 0.00 | 60 | 1009.3 |
| 20260830183122 | 86 | 263 | 4.0 | 11.0 | 0.00 | 0.00 | 0.00 | 60 | 1009.4 |
| 20260830182632 | 86 | 206 | 4.0 | 11.0 | 0.00 | 0.00 | 0.00 | 60 | 1009.5 |
| 20260830182131 | 86 | 256 | 4.0 | 14.0 | 0.00 | 0.00 | 0.00 | 60 | 1009.6 |
| 20260830181634 | 86 | 250 | 6.0 | 14.0 | 0.00 | 0.00 | 0.00 | 59 | 1009.7 |
| 20260830181133 | 87 | 262 | 6.0 | 11.0 | 0.00 | 0.00 | 0.00 | 59 | 1009.9 |
| 20260830180615 | 87 | 195 | 5.0 | 12.0 | 0.00 | 0.00 | 0.00 | 58 | 1009.9 |
| 20260830180119 | 87 | 217 | 5.0 | 12.0 | 0.00 | 0.00 | 0.00 | 59 | 1009.9 |
| 20260830175626 | 87 | 221 | 7.0 | 12.0 | 0.00 | 0.00 | 0.00 | 58 | 1010.0 |
| 20260830175125 | 87 | 254 | 4.0 | 12.0 | 0.00 | 0.00 | 0.00 | 59 | 1010.0 |
| 20260830174649 | 87 | 224 | 7.0 | 11.0 | 0.00 | 0.00 | 0.00 | 57 | 1009.9 |
| 20260830174130 | 87 | 202 | 6.0 | 13.0 | 0.00 | 0.00 | 0.00 | 57 | 1009.9 |
| 20260830173633 | 87 | 178 | 8.0 | 14.0 | 0.00 | 0.00 | 0.00 | 55 | 1009.9 |
| 20260830173133 | 88 | 254 | 7.0 | 14.0 | 0.00 | 0.00 | 0.00 | 57 | 1010.1 |
| 20260830172617 | 88 | 209 | 4.0 | 12.0 | 0.00 | 0.00 | 0.00 | 60 | 1009.9 |
| 20260830172116 | 87 | 195 | 4.0 | 11.0 | 0.00 | 0.00 | 0.00 | 59 | 1009.8 |
| 20260830171623 | 87 | 229 | 3.0 | 10.0 | 0.00 | 0.00 | 0.00 | 58 | 1009.9 |
| 20260830171141 | 86 | 156 | 5.0 | 9.0 | 0.00 | 0.00 | 0.00 | 60 | 1009.8 |
| 20260830170646 | 86 | 271 | 4.0 | 9.0 | 0.00 | 0.00 | 0.00 | 60 | 1009.9 |
| 20260830170144 | 86 | 241 | 3.0 | 10.0 | 0.00 | 0.00 | 0.00 | 60 | 1009.9 |
| 20260830165647 | 86 | 212 | 3.0 | 14.0 | 0.00 | 0.00 | 0.00 | 58 | 1009.9 |
| 20260830165124 | 86 | 300 | 6.0 | 14.0 | 0.00 | 0.00 | 0.00 | 57 | 1009.9 |
| 20260830164636 | 87 | 182 | 4.0 | 10.0 | 0.00 | 0.00 | 0.00 | 57 | 1009.9 |
| 20260830164135 | 86 | 252 | 5.0 | 10.0 | 0.00 | 0.00 | 0.00 | 58 | 1009.9 |
| 20260830163623 | 86 | 217 | 6.0 | 10.0 | 0.00 | 0.00 | 0.00 | 58 | 1009.9 |
| 20260830163126 | 86 | 193 | 3.0 | 12.0 | 0.00 | 0.00 | 0.00 | 59 | 1009.9 |
| 20260830162629 | 85 | 252 | 5.0 | 12.0 | 0.00 | 0.00 | 0.00 | 59 | 1010.0 |
| 20260830162130 | 85 | 243 | 4.0 | 9.0 | 0.00 | 0.00 | 0.00 | 62 | 1009.9 |
| 20260830161618 | 84 | 254 | 2.0 | 6.0 | 0.00 | 0.00 | 0.00 | 66 | 1010.0 |
| 20260830161137 | 84 | 217 | 3.0 | 7.0 | 0.00 | 0.00 | 0.00 | 65 | 1010.1 |
| 20260830160619 | 83 | 115 | 3.0 | 7.0 | 0.00 | 0.00 | 0.00 | 65 | 1010.0 |
| 20260830160142 | 83 | 238 | 3.0 | 7.0 | 0.00 | 0.00 | 0.00 | 65 | 1009.9 |
| 20260830155628 | 83 | 186 | 4.0 | 7.0 | 0.00 | 0.00 | 0.00 | 65 | 1009.8 |
| 20260830155125 | 84 | 188 | 4.0 | 8.0 | 0.00 | 0.00 | 0.00 | 65 | 1009.9 |
| 20260830154629 | 83 | 137 | 3.0 | 8.0 | 0.00 | 0.00 | 0.00 | 65 | 1009.9 |
| 20260830154127 | 83 | 131 | 2.0 | 8.0 | 0.00 | 0.00 | 0.00 | 65 | 1009.9 |
| 20260830153635 | 83 | 172 | 3.0 | 7.0 | 0.00 | 0.00 | 0.00 | 65 | 1010.1 |
| 20260830153118 | 83 | 183 | 3.0 | 10.0 | 0.00 | 0.00 | 0.00 | 66 | 1010.1 |
| 20260830152629 | 83 | 112 | 2.0 | 10.0 | 0.00 | 0.00 | 0.00 | 66 | 1010.2 |
| 20260830152129 | 83 | 142 | 4.0 | 10.0 | 0.00 | 0.00 | 0.00 | 66 | 1009.9 |
| 20260830151636 | 82 | 118 | 3.0 | 6.0 | 0.00 | 0.00 | 0.00 | 66 | 1009.8 |
| 20260830151114 | 82 | 227 | 2.0 | 8.0 | 0.00 | 0.00 | 0.00 | 66 | 1009.8 |
| 20260830150621 | 82 | 178 | 4.0 | 9.0 | 0.00 | 0.00 | 0.00 | 65 | 1010.0 |
| 20260830150123 | 82 | 174 | 1.0 | 9.0 | 0.00 | 0.00 | 0.00 | 67 | 1009.9 |
| 20260830145627 | 81 | 194 | 2.0 | 9.0 | 0.00 | 0.00 | 0.00 | 68 | 1009.9 |
| 20260830145125 | 80 | 185 | 3.0 | 7.0 | 0.00 | 0.00 | 0.00 | 68 | 1009.9 |
| 20260830144634 | 80 | 185 | 2.0 | 7.0 | 0.00 | 0.00 | 0.00 | 68 | 1009.8 |
| 20260830144133 | 80 | 175 | 3.0 | 6.0 | 0.00 | 0.00 | 0.00 | 68 | 1009.9 |
| 20260830143620 | 80 | 186 | 1.0 | 5.0 | 0.00 | 0.00 | 0.00 | 69 | 1009.9 |
| 20260830143117 | 80 | 160 | 2.0 | 5.0 | 0.00 | 0.00 | 0.00 | 69 | 1009.9 |
| 20260830142623 | 80 | 179 | 1.0 | 5.0 | 0.00 | 0.00 | 0.00 | 69 | 1010.1 |
| 20260830142120 | 79 | 215 | 2.0 | 5.0 | 0.00 | 0.00 | 0.00 | 69 | 1010.1 |
| 20260830141644 | 79 | 148 | 1.0 | 5.0 | 0.00 | 0.00 | 0.00 | 69 | 1009.8 |
| 20260830141121 | 79 | 142 | 3.0 | 5.0 | 0.00 | 0.00 | 0.00 | 69 | 1009.8 |
| 20260830140647 | 79 | 160 | 1.0 | 5.0 | 0.00 | 0.00 | 0.00 | 69 | 1009.9 |
| 20260830140127 | 79 | 168 | 1.0 | 5.0 | 0.00 | 0.00 | 0.00 | 69 | 1009.8 |
| 20260830135632 | 79 | 174 | 1.0 | 5.0 | 0.00 | 0.00 | 0.00 | 68 | 1009.9 |
| 20260830135114 | 79 | 170 | 1.0 | 4.0 | 0.00 | 0.00 | 0.00 | 69 | 1009.9 |
| 20260830134621 | 79 | 185 | 2.0 | 7.0 | 0.00 | 0.00 | 0.00 | 68 | 1009.9 |
| 20260830134117 | 79 | 196 | 2.0 | 7.0 | 0.00 | 0.00 | 0.00 | 68 | 1009.8 |
| 20260830133625 | 79 | 217 | 1.0 | 6.0 | 0.00 | 0.00 | 0.00 | 68 | 1009.9 |
| 20260830133122 | 79 | 181 | 3.0 | 6.0 | 0.00 | 0.00 | 0.00 | 68 | 1009.9 |
| 20260830132625 | 79 | 260 | 1.0 | 7.0 | 0.00 | 0.00 | 0.00 | 68 | 1009.9 |
| 20260830132122 | 79 | 185 | 1.0 | 7.0 | 0.00 | 0.00 | 0.00 | 69 | 1010.0 |
| 20260830131646 | 79 | 219 | 3.0 | 4.0 | 0.00 | 0.00 | 0.00 | 69 | 1010.1 |
| 20260830131123 | 79 | 176 | 0.0 | 4.0 | 0.00 | 0.00 | 0.00 | 68 | 1010.1 |
| 20260830130632 | 79 | 153 | 1.0 | 6.0 | 0.00 | 0.00 | 0.00 | 68 | 1009.9 |
| 20260830130131 | 79 | 216 | 2.0 | 6.0 | 0.00 | 0.00 | 0.00 | 68 | 1009.9 |
| 20260830125638 | 79 | 175 | 0.0 | 5.0 | 0.00 | 0.00 | 0.00 | 68 | 1010.0 |
| 20260830125133 | 78 | 208 | 2.0 | 5.0 | 0.00 | 0.00 | 0.00 | 68 | 1010.0 |
| 20260830124618 | 78 | 188 | 2.0 | 6.0 | 0.00 | 0.00 | 0.00 | 69 | 1010.0 |
| 20260830124139 | 78 | 215 | 2.0 | 6.0 | 0.00 | 0.00 | 0.00 | 69 | 1010.0 |
| 20260830123627 | 78 | 178 | 0.0 | 6.0 | 0.00 | 0.00 | 0.00 | 69 | 1009.9 |
| 20260830123131 | 78 | 137 | 1.0 | 6.0 | 0.00 | 0.00 | 0.00 | 69 | 1009.8 |
| 20260830122637 | 78 | 212 | 2.0 | 7.0 | 0.00 | 0.00 | 0.00 | 70 | 1009.8 |
| 20260830122133 | 78 | 169 | 2.0 | 7.0 | 0.00 | 0.00 | 0.00 | 69 | 1009.7 |
| 20260830121618 | 78 | 162 | 3.0 | 6.0 | 0.00 | 0.00 | 0.00 | 70 | 1009.8 |
| 20260830121122 | 78 | 190 | 2.0 | 6.0 | 0.00 | 0.00 | 0.00 | 70 | 1009.9 |
| 20260830120626 | 78 | 183 | 1.0 | 4.0 | 0.00 | 0.00 | 0.00 | 70 | 1010.1 |
| 20260830120152 | 78 | 213 | 1.0 | 4.0 | 0.00 | 0.00 | 0.00 | 70 | 1010.1 |
| 20260830115636 | 78 | 164 | 1.0 | 2.0 | 0.00 | 0.00 | 0.00 | 70 | 1010.0 |
| 20260830115133 | 78 | 164 | 0.0 | 4.0 | 0.00 | 0.00 | 0.00 | 70 | 1009.9 |
| 20260830114617 | 78 | 99 | 1.0 | 4.0 | 0.00 | 0.00 | 0.00 | 70 | 1009.9 |
| 20260830114155 | 78 | 146 | 1.0 | 6.0 | 0.00 | 0.00 | 0.00 | 70 | 1009.9 |
| 20260830113657 | 78 | 186 | 1.0 | 6.0 | 0.00 | 0.00 | 0.00 | 70 | 1009.9 |
| 20260830113133 | 78 | 123 | 3.0 | 5.0 | 0.00 | 0.00 | 0.00 | 70 | 1009.9 |
| 20260830112638 | 78 | 199 | 1.0 | 2.0 | 0.00 | 0.00 | 0.00 | 70 | 1010.1 |